Location: Gaast
(52.9002°N, 5.8891°E)
Time: 23:02:35
(UTC+00:00)

Spot 4 Rocket - Pass Details

Date: 18 November 2025
Orbit: 769 x 773 km, 98.8° (Epoch: 04 December)

Event Time Altitude Azimuth Distance (km) Brightness Sun altitude
Rises 16:51:37 0° 136° (SE) 3,233 7.0 -11.0°
Reaches altitude 10° 16:54:03 10° 128° (SE) 2,310 6.2 -11.3°
Maximum altitude 16:58:42 37° 62° (ENE) 1,178 4.5 -12.0°
Drops below altitude 10° 17:03:23 10° 356° (N) 2,325 6.4 -12.7°
Sets 17:05:49 0° 349° (N) 3,257 7.2 -13.0°
